[Iaude] MPEC J192: 2017 BP236 [a=35.19,e=0.05,i=18.4,H=8.5]

mpec at cfa.harvard.edu mpec at cfa.harvard.edu
Wed May 8 15:03:26 EDT 2024


M.P.E.C. 2024-J192                                  Issued 2024 May 8, 19:01 UT

     The Minor Planet Electronic Circulars contain information on unusual
         minor planets, routine data on comets and natural satellites,
         and occasional editorial announcements.  They are published
    on behalf of Division F of the International Astronomical Union by the
          Minor Planet Center, Smithsonian Astrophysical Observatory,
                          Cambridge, MA 02138, U.S.A.
			  
             Prepared using the Tamkin Foundation Computer Network

                              MPC at CFA.HARVARD.EDU
            URL https://www.minorplanetcenter.net/    ISSN 1523-6714

                                   2017 BP236                                   


Observations:
     K17BN6P*4C2017 01 26.55620 09 59 16.74 +00 07 13.4          23.2 z1EJ192T09
     K17BN6P 4C2017 01 26.55888 09 59 16.73 +00 07 13.2          23.4 z1EJ192T09
     K17BN6P 4C2017 01 26.57229 09 59 16.66 +00 07 13.6          23.4 z1EJ192T09
     K17BN6P 4C2017 01 26.58570 09 59 16.58 +00 07 14.3          23.1 z1EJ192T09
     K17BN6P 4C2017 02 02.38198 09 58 40.82 +00 10 10.6          23.8 r1EJ192T09
     K17BN6P 4C2017 02 02.39743 09 58 40.73 +00 10 11.1          23.7 r1EJ192T09
     K17BN6P 4C2017 02 02.58245 09 58 39.71 +00 10 16.3          23.2 i1EJ192T09
     K17BN6P 4C2017 03 22.24385 09 54 28.40 +00 39 28.1          24.3 g1EJ192T09
     K17BN6P 4C2017 03 22.24805 09 54 28.36 +00 39 28.1          24.3 g1EJ192T09
     K17BN6P 4C2017 03 22.33107 09 54 28.00 +00 39 31.8          24.1 g1EJ192T09
     K17BN6P 4C2017 04 27.32671 09 52 47.56 +01 01 31.8          23.6 i1EJ192T09
     K17BN6P 4C2017 04 27.32955 09 52 47.56 +01 01 32.0          23.5 i1EJ192T09
     K17BN6P 4C2017 04 27.33527 09 52 47.55 +01 01 32.2          23.8 i1EJ192T09
     K17BN6P 4C2017 04 27.33816 09 52 47.55 +01 01 32.3          23.7 i1EJ192T09
     K17BN6P 4C2017 04 27.34103 09 52 47.56 +01 01 32.5          23.7 i1EJ192T09
     K17BN6P 4C2018 01 17.50222 10 07 40.43 -00 07 35.7          23.4 i1EJ192T09
     K17BN6P 4C2018 01 17.53998 10 07 40.26 -00 07 35.2          23.4 i1EJ192T09
     K17BN6P 4C2018 01 17.56687 10 07 40.14 -00 07 34.7          23.6 i1EJ192T09
     K17BN6P 4C2018 01 17.59100 10 07 40.02 -00 07 34.0          23.8 i1EJ192T09
     K17BN6P 1C2019 01 11.43672210 15 42.97 -00 20 43.4                WEJ192T09
     K17BN6P 1C2019 01 11.49030410 15 42.75 -00 20 42.7                WEJ192T09

Observer details:
T09 Subaru Telescope, Maunakea.  Observers H. Aihara, Y. AlSayyad, M. Ando, R.
    Armstrong, J. Bosch, E. Egami, H. Furusawa, J. Furusawa, S. Harasawa, Y.
    Harikane, B.-C. Hsieh, H. Ikeda, K. Ito, I. Iwata, T. Kodama, M. Koike, M.
    Kokubo, Y. Komiyama, X. Li, Y. Liang, Y.-T. Lin, R. H. Lupton, N. B. Lust,
    L. A. MacArthur, K. Mawatari, S. Mineo, H. Miyatake, S. Miyazaki, S. More,
    T. Morishima, H. Murayama, K. Nakajima, F. Nakata, A. J. Nishizawa, M.
    Oguri, N. Okabe, Y. Okura, Y. Ono, K. Osato, M. Ouchi, Y.-C. Pan, A. A.
    Plazas Malagon, P. A. Price, S. L. Reed, E. S. Rykoff, T. Shibuya, M.
    Simunovic, M. A. Strauss, K. Sugimori, Y. Suto, N. Suzuki, M. Takada, Y.
    Takagi, T. Takata, S. Takita, M. Tanaka, S. Tang, D. S. Taranu, T. Terai,
    Y. Toba, E. L. Turner, H. Uchiyama, B. Vijarnwannaluk, C. Z. Waters, Y.
    Yamada, N. Yamamoto, T. Yamashita.  Measurers A. Yamauchi, H. Fukuyama, R.
    Edakubo, S. Deen.  8.2-m f/2.0 reflector + CCD(HSC), 8.3-m Subaru
    Telescope + CCD.

Orbital elements:
2017 BP236                                                                      
Epoch 2024 Mar. 31.0 TT = JDT 2460400.5                 Alexandersen            
M  44.33602              (2000.0)            P               Q                  
n   0.00472189     Peri.  287.06510     -0.40920737     -0.91151686             
a  35.1877858      Node   187.48907     +0.91003230     -0.40444510             
e   0.0497253      Incl.   18.36495     +0.06626114     -0.07457327             
P 209              H    8.50          G   0.15           U   5                  
Residuals in seconds of arc
170126 T09  0.0   0.0     170322 T09  0.1+  0.1+    170427 T09  0.2+  0.0
170126 T09  0.0   0.2-    170322 T09  0.2-  0.1-    180117 T09  0.0   0.1+
170126 T09  0.0   0.2-    170322 T09  0.0   0.2+    180117 T09  0.0   0.0
170126 T09  0.1-  0.2+    170427 T09  0.1-  0.2-    180117 T09  0.1+  0.0
170202 T09  0.1+  0.0     170427 T09  0.0   0.1-    180117 T09  0.1-  0.3+
170202 T09  0.0   0.0     170427 T09  0.1-  0.1-    190111 T09  0.1+  0.1-
170202 T09  0.0   0.0     170427 T09  0.0   0.0     190111 T09  0.1-  0.1-

Ephemeris:
2017 BP236               a,e,i = 35.19, 0.05, 18                 q = 33.4381
Date    TT    R. A. (2000) Decl.     Delta      r    Elong.  Phase     V
2024 04 08    10 46 25.5 -00 29 21  33.1650 33.9820   144.2     1.0    23.9
...
2024 04 23    10 45 34.3 -00 20 06  33.3347 33.9836   129.5     1.3    24.0
...
2024 05 01    10 45 15.2 -00 15 46  33.4432 33.9845   121.8     1.4    24.0
...
2024 05 07    10 45 04.9 -00 12 51  33.5313 33.9851   116.0     1.5    24.0
2024 05 08    10 45 03.6 -00 12 24  33.5464 33.9852   115.0     1.5    24.0
2024 05 09    10 45 02.3 -00 11 57  33.5617 33.9853   114.0     1.6    24.0
...
2024 05 15    10 44 57.1 -00 09 28  33.6557 33.9860   108.3     1.6    24.0
...
2024 05 23    10 44 56.0 -00 06 43  33.7859 33.9869   100.6     1.7    24.0
...
2024 06 07    10 45 12.4 -00 03 25  34.0373 33.9885    86.4     1.7    24.0

M. P. C. Staff               (C) Copyright 2024 MPC           M.P.E.C. 2024-J192





More information about the Iaude mailing list